Home   Weather   Lexington   Past weeks

Flag for USA Past Weather in Lexington, Virginia, USA — Yesterday and Last 2 Weeks

Now
27 °F

Partly sunny.


Feels Like: 14 °F
Forecast: 26 / 42 °F
Wind: 17 mph from West

Location: Hot Springs / Ingalls

Current Time: Dec 8, 2016 at 9:34:51 am

Latest Report: Dec 8, 2016 at 8:57 am


Visibility: 10 mi

Pressure: 29.97 "Hg

Humidity: 54%

Dew Point: 12 °F

Location of LexingtonLocation

Past Weather in Lexington — Graph

°F

Lexington Temperature Yesterday

Maximum temperature yesterday: 43 °F (at 2:16 pm)
Minimum temperature yesterday: 32 °F (at 6:17 am)
Average temperature yesterday: 36 °F

High & Low Weather Summary for the Past Weeks

 TemperatureHumidityPressure
High57 °F (Nov 29, 2:15 pm)100% (Nov 24, 4:55 pm)30.24 "Hg (Nov 24, 4:55 pm)
Low27 °F (Nov 27, 5:15 am)2% (Dec 7, 11:18 pm)29.64 "Hg (Nov 30, 7:35 pm)
Average39 °F78%30.00 "Hg
* Reported Nov 23 8:15 am — Dec 8 8:15 am, Lexington, Weather by CustomWeather, © 2016

Note: Actual official high and low records may vary slightly from our data, if they occured in-between our weather recording intervals... More about our weather records

Advertising

Lexington Weather History for the Previous 24 Hours

Scroll right to see more
 ConditionsComfort  
Time TempWeatherWind HumidityBarometerVisibility
8:15 am
Thu, Dec 8
27 °FPartly sunny.20 mph64%29.97 "Hg10 mi
7:56 am28 °FPartly sunny.22 mph59%29.96 "Hg10 mi
7:15 am28 °FMostly cloudy.16 mph69%29.95 "Hg10 mi
6:57 am28 °FPartly cloudy.14 mph69%29.95 "Hg10 mi
6:36 am28 °FPassing clouds.14 mph69%29.95 "Hg10 mi
6:16 am28 °FPassing clouds.15 mph69%29.95 "Hg10 mi
5:56 am28 °FPassing clouds.16 mph64%29.95 "Hg10 mi
5:36 am28 °FOvercast.15 mph64%29.95 "Hg10 mi
5:16 am28 °FOvercast.14 mph69%29.93 "Hg10 mi
4:56 am28 °FPartly cloudy.13 mph64%29.93 "Hg10 mi
4:36 am28 °FPassing clouds.12 mph64%29.94 "Hg10 mi
3:56 am30 °FOvercast.12 mph55%29.95 "Hg10 mi
3:36 am30 °FPassing clouds.12 mph51%29.95 "Hg10 mi
3:16 am30 °FPassing clouds.13 mph47%29.95 "Hg10 mi
2:56 am30 °FOvercast.10 mph47%29.96 "Hg10 mi
2:17 am32 °FPassing clouds.9 mph34%29.96 "Hg10 mi
1:57 am34 °FOvercast.9 mph32%29.96 "Hg10 mi
1:15 am34 °FOvercast.12 mph38%29.97 "Hg10 mi
12:58 am34 °FPassing clouds.12 mph38%29.97 "Hg10 mi
12:15 am34 °FClear.10 mph35%29.96 "Hg10 mi
11:57 pm
Wed, Dec 7
37 °FClear.6 mph35%29.97 "Hg10 mi
11:35 pm37 °FClear.5 mph12%29.98 "Hg10 mi
11:18 pm37 °FPassing clouds.6 mph2%29.98 "Hg10 mi
10:56 pm36 °FPassing clouds.7 mph8%30.00 "Hg10 mi
10:35 pm37 °FClear.3 mph4%30.00 "Hg10 mi
9:55 pm37 °FPassing clouds.5 mph18%30.00 "Hg10 mi
9:35 pm36 °FPassing clouds.3 mph3%29.99 "Hg10 mi
9:18 pm36 °FClear.No wind4%29.99 "Hg10 mi
8:16 pm37 °FClear.No wind13%30.01 "Hg10 mi
7:35 pm36 °FClear.No wind27%30.00 "Hg10 mi
7:17 pm36 °FClear.No wind30%30.00 "Hg10 mi
6:56 pm36 °FClear.No wind30%30.01 "Hg10 mi
4:16 pm41 °FSunny.8 mph42%29.99 "Hg10 mi
3:55 pm41 °FSunny.8 mph45%29.98 "Hg10 mi
3:35 pm41 °FSunny.12 mph45%29.98 "Hg10 mi
3:18 pm43 °FSunny.10 mph42%29.97 "Hg10 mi
2:58 pm43 °FSunny.10 mph46%29.97 "Hg10 mi
2:36 pm43 °FSunny.9 mph49%29.97 "Hg10 mi
2:16 pm43 °FSunny.9 mph49%29.98 "Hg10 mi
1:56 pm41 °FSunny.12 mph53%29.97 "Hg10 mi
1:36 pm41 °FSunny.9 mph57%29.97 "Hg10 mi
12:55 pm39 °FSunny.8 mph61%29.97 "Hg10 mi
12:36 pm39 °FSunny.8 mph61%29.97 "Hg10 mi
12:16 pm37 °FSunny.8 mph70%29.97 "Hg10 mi
11:57 am37 °FSunny.8 mph75%29.98 "Hg10 mi
11:36 am37 °FSunny.9 mph75%29.98 "Hg10 mi
11:19 am36 °FSunny.10 mph81%29.99 "Hg10 mi
10:17 am34 °FSunny.9 mph93%29.98 "Hg10 mi
9:15 am32 °FSunny.8 mph87%29.95 "Hg10 mi
Weather by CustomWeather, © 2016

See weather overviewHow to use our weather pages